EW9175 Weather Reports


time (UTC)temp
C
wind
direction
speed
KPH
gust
KPH
rain 1hr
cm
rain 24hr
cm
rain mn
cm
humidity
%
barometer
mb
20260506231503 28 202 1.6 1.6 0.00 0.00 0.00 39 1087.0
20260506225506 27 202 0.0 1.6 0.00 0.00 0.00 41 1087.4
20260506224504 26 202 1.6 1.6 0.00 0.00 0.00 41 1087.6
20260506224402 26 202 1.6 1.6 0.00 0.00 0.00 41 1087.6
20260506222404 26 202 1.6 3.2 0.00 0.00 0.00 43 1087.8
20260506221502 25 211 1.6 1.6 0.00 0.00 0.00 43 1087.9
20260506220503 25 157 0.0 1.6 0.00 0.00 0.00 44 1088.1
20260506220402 25 157 3.2 3.2 0.00 0.00 0.00 44 1088.1
20260506215404 25 157 3.2 4.8 0.00 0.00 0.00 44 1088.2
20260506215305 25 157 1.6 3.2 0.00 0.00 0.00 44 1088.3
20260506214401 25 157 3.2 4.8 0.00 0.00 0.00 43 1088.3
20260506212503 25 180 1.6 3.2 0.00 0.00 0.00 45 1088.6
20260506212403 25 180 3.2 3.2 0.00 0.00 0.00 44 1088.6
20260506211503 25 232 1.6 4.8 0.00 0.00 0.00 46 1088.8
20260506210504 23 157 1.6 3.2 0.00 0.00 0.00 47 1088.9
20260506204604 23 221 3.2 6.4 0.00 0.00 0.00 48 1088.9
20260506203601 23 250 4.8 9.7 0.00 0.00 0.00 48 1089.2
20260506202604 23 204 1.6 4.8 0.00 0.00 0.00 48 1089.3
20260506200603 22 247 4.8 6.4 0.00 0.00 0.00 49 1089.6
20260506195702 22 244 4.8 8.0 0.00 0.00 0.00 50 1089.7
20260506195603 22 208 1.6 3.2 0.00 0.00 0.00 50 1089.8
20260506194701 21 249 6.4 9.7 0.00 0.00 0.00 51 1089.7
20260506194602 21 198 3.2 8.0 0.00 0.00 0.00 50 1089.7
20260506194502 21 207 4.8 9.7 0.00 0.00 0.00 51 1089.8
20260506193505 21 292 9.7 11.3 0.00 0.00 0.00 50 1090.0
20260506193404 21 254 4.8 9.7 0.00 0.00 0.00 49 1090.1
20260506192404 22 223 1.6 4.8 0.00 0.00 0.00 51 1090.1
20260506191503 22 184 0.0 1.6 0.00 0.00 0.00 51 1090.3
20260506190503 21 219 0.0 0.0 0.00 0.00 0.00 52 1090.3
20260506184605 21 202 0.0 0.0 0.00 0.00 0.00 55 1090.6
20260506183604 20 205 0.0 0.0 0.00 0.00 0.00 56 1090.7
20260506182702 20 222 3.2 4.8 0.00 0.00 0.00 56 1090.9
20260506180801 20 202 0.0 0.0 0.00 0.00 0.00 58 1091.0
20260506175803 20 187 1.6 6.4 0.00 0.00 0.00 57 1091.1
20260506174801 20 172 3.2 4.8 0.00 0.00 0.00 57 1091.0
20260506174705 20 202 0.0 1.6 0.00 0.00 0.00 57 1090.9
20260506173803 19 202 0.0 0.0 0.00 0.00 0.00 59 1091.1
20260506172803 18 157 0.0 1.6 0.00 0.00 0.00 63 1091.1
20260506172703 18 211 1.6 3.2 0.00 0.00 0.00 63 1091.1
20260506171703 17 214 0.0 0.0 0.00 0.00 0.00 64 1091.2
20260506170704 16 225 1.6 1.6 0.00 0.00 0.00 65 1091.5
20260506165702 17 225 3.2 3.2 0.00 0.00 0.00 65 1091.4
20260506164704 16 157 3.2 3.2 0.00 0.00 0.00 66 1091.4
20260506163704 16 214 3.2 3.2 0.00 0.00 0.00 68 1091.4
20260506162705 16 202 3.2 3.2 0.00 0.00 0.00 70 1091.6
20260506161702 15 202 0.0 0.0 0.00 0.00 0.00 73 1091.8
20260506161604 15 202 0.0 0.0 0.00 0.00 0.00 73 1091.8
20260506155704 -17 0 0.0 0.0 0.00 0.00 0.00 100
20260506154704 -17 0 0.0 0.0 0.00 0.00 0.00 100
20260506152801 -17 0 0.0 0.0 0.00 0.00 0.00 100
20260506151804 -17 0 0.0 0.0 0.00 0.00 0.00 100
20260506150804 -17 0 0.0 0.0 0.00 0.00 0.00 100
20260506150703 -17 0 0.0 0.0 0.00 0.00 0.00 100
20260506145703 -17 0 0.0 0.0 0.00 0.00 0.00 100
20260506144801 -17 0 0.0 0.0 0.00 0.00 0.00 100
20260506144704 -17 0 0.0 0.0 0.00 0.00 0.00 100
20260506143703 -17 0 0.0 0.0 0.00 0.00 0.00 100
20260506143601 -17 0 0.0 0.0 0.00 0.00 0.00 100
20260506142602 -17 0 0.0 0.0 0.00 0.00 0.00 100
20260506141605 -17 0 0.0 0.0 0.00 0.00 0.00 100
20260506140602 -17 0 0.0 0.0 0.00 0.00 0.00 100
20260506135603 -17 0 0.0 0.0 0.00 0.00 0.00 100
20260506135505 -17 0 0.0 0.0 0.00 0.00 0.00 100
20260506134602 -17 0 0.0 0.0 0.00 0.00 0.00 100
20260506132702 -17 0 0.0 0.0 0.00 0.00 0.00 100
20260506132603 -17 0 0.0 0.0 0.00 0.00 0.00 100
20260506131703 -17 0 0.0 0.0 0.00 0.00 0.00 100
20260506130702 -17 0 0.0 0.0 0.00 0.00 0.00 100
20260506125703 -17 0 0.0 0.0 0.00 0.00 0.00 100
20260506125604 -17 0 0.0 0.0 0.00 0.00 0.00 100
20260506124703 -17 0 0.0 0.0 0.00 0.00 0.00 100
20260506123704 -17 0 0.0 0.0 0.00 0.00 0.00 100
20260506121801 -17 0 0.0 0.0 0.00 0.00 0.00 100
20260506120805 -17 0 0.0 0.0 0.00 0.00 0.00 100
20260506114903 7 67 0.0 0.0 0.00 0.00 0.00 91 1090.0
20260506114803 7 67 0.0 0.0 0.00 0.00 0.00 91 1090.0
20260506113819 7 67 0.0 0.0 0.00 0.00 0.00 91 1089.8
20260506113705 7 67 0.0 0.0 0.00 0.00 0.00 91 1089.7
20260506112805 7 67 0.0 0.0 0.00 0.00 0.00 91 1089.9
20260506110904 -17 0 0.0 0.0 0.00 0.00 0.00 100
20260506105905 -17 0 0.0 0.0 0.00 0.00 0.00 100
20260506104905 -17 0 0.0 0.0 0.00 0.00 0.00 100
20260506104806 -17 0 0.0 0.0 0.00 0.00 0.00 100
20260506103903 -17 0 0.0 0.0 0.00 0.00 0.00 100
20260506102905 -17 0 0.0 0.0 0.00 0.00 0.00 100
20260506101905 -17 0 0.0 0.0 0.00 0.00 0.00 100
20260506100905 -17 0 0.0 0.0 0.00 0.00 0.00 100
20260506095903 -17 0 0.0 0.0 0.00 0.00 0.00 100
20260506094904 -17 0 0.0 0.0 0.00 0.00 0.00 100
20260506093904 -17 0 0.0 0.0 0.00 0.00 0.00 100
20260506092903 -17 0 0.0 0.0 0.00 0.00 0.00 100
20260506091902 -17 0 0.0 0.0 0.00 0.00 0.00 100
20260506091804 -17 0 0.0 0.0 0.00 0.00 0.00 100
20260506090803 -17 0 0.0 0.0 0.00 0.00 0.00 100
20260506085803 -17 0 0.0 0.0 0.00 0.00 0.00 100
20260506083802 -17 0 0.0 0.0 0.00 0.00 0.00 100
20260506081904 -17 0 0.0 0.0 0.00 0.00 0.00 100
20260506081804 -17 0 0.0 0.0 0.00 0.00 0.00 100
20260506080805 -17 0 0.0 0.0 0.00 0.00 0.00 100
20260506071824 -17 0 0.0 0.0 0.00 0.00 0.00 100
20260506071723 -17 0 0.0 0.0 0.00 0.00 0.00 100
20260506070725 -17 0 0.0 0.0 0.00 0.00 0.00 100
20260506061817 -17 0 0.0 0.0 0.00 0.00 0.00 100
20260506060818 -17 0 0.0 0.0 0.00 0.00 0.00 100
20260506050718 -17 0 0.0 0.0 0.00 0.00 0.00 100
20260506044818 -17 0 0.0 0.0 0.00 0.00 0.00 100
20260506043818 -17 0 0.0 0.0 0.00 0.00 0.00 100
20260506042818 -17 0 0.0 0.0 0.00 0.00 0.00 100
20260506042718 -17 0 0.0 0.0 0.00 0.00 0.00 100
20260506041720 -17 0 0.0 0.0 0.00 0.00 0.00 100
20260506040817 -17 0 0.0 0.0 0.00 0.00 0.00 100
20260506035819 -17 0 0.0 0.0 0.00 0.00 0.00 100
20260506034918 14 270 1.6 1.6 0.00 0.00 0.00 66 1086.9
20260506033918 15 270 4.8 4.8 0.00 0.00 0.00 66 1086.9
20260506031919 -17 0 0.0 0.0 0.00 0.00 0.00 100
20260506031018 15 22 3.2 3.2 0.00 0.00 0.00 63 1086.5
20260506025018 -17 0 0.0 0.0 0.00 0.00 0.00 100
20260506024017 -17 0 0.0 0.0 0.00 0.00 0.00 100
20260506023918 -17 0 0.0 0.0 0.00 0.00 0.00 100
20260506023819 -17 0 0.0 0.0 0.00 0.00 0.00 100
20260506022817 -17 0 0.0 0.0 0.00 0.00 0.00 100
20260506020918 -17 0 0.0 0.0 0.00 0.00 0.00 100
20260506020819 -17 0 0.0 0.0 0.00 0.00 0.00 100
20260506015719 -17 0 0.0 0.0 0.00 0.00 0.00 100
20260506014617 17 247 3.2 3.2 0.00 0.00 0.00 59 1085.6
20260506014518 17 247 3.2 3.2 0.00 0.00 0.00 59 1085.6
20260506013517 17 292 1.6 1.6 0.00 0.00 0.00 59 1085.8
20260506013416 17 292 1.6 1.6 0.00 0.00 0.00 59 1085.8
20260506013319 17 292 1.6 1.6 0.00 0.00 0.00 59 1085.8
20260506012318 17 247 1.6 1.6 0.00 0.00 0.00 59 1085.8
20260506011319 17 292 0.0 1.6 0.00 0.00 0.00 58 1085.8
20260506010319 17 25 1.6 3.2 0.00 0.00 0.00 58 1085.8
20260506005318 -17 0 0.0 0.0 0.00 0.00 0.00 100
20260506004317 17 247 1.6 1.6 0.00 0.00 0.00 57 1085.8
20260506004219 17 247 1.6 1.6 0.00 0.00 0.00 57 1085.8
20260506004117 17 247 3.2 3.2 0.00 0.00 0.00 57 1085.7
20260506003117 -17 0 0.0 0.0 0.00 0.00 0.00 100
20260506003018 -17 0 0.0 0.0 0.00 0.00 0.00 100
20260506002018 17 292 1.6 3.2 0.00 0.00 0.00 56 1085.6
20260506001017 18 292 4.8 4.8 0.00 0.00 0.00 55 1085.6
20260506000018 18 360 4.8 4.8 0.00 0.00 0.00 56 1085.4
20260505235918 18 8 4.8 6.4 0.00 0.00 0.00 56 1085.4
20260505235016 18 255 3.2 3.2 0.00 0.00 0.00 54 1085.5
20260505234018 19 270 6.4 9.7 0.00 0.00 0.00 47 1085.3
20260505233021 20 247 3.2 4.8 0.00 0.00 0.00 46 1085.3